Location: Ceske Budejovice
(48.9830°N, 14.4670°E)
Time: 09:18:10
(UTC+02:00)

ISS - Pass Details

Date: 30 April 2024
Orbit: 409 x 414 km, 51.6° (Epoch: 21 May)

Event Time Altitude Azimuth Distance (km) Brightness Sun altitude
Exits shadow 02:17:28 13° 91° (E) 1,336 -1.0 -23.8°
Drops below altitude 10° 02:17:52 10° 87° (E) 1,470 -0.7 -23.8°
Sets 02:20:13 0° 73° (ENE) 2,343 0.6 -23.7°
